Weather History for Klamath Falls, OR

Change the Weather History Date:

Saturday, January 26, 2013

  Actual Average Record
Temperature  
Mean Temperature 32 °F 31 °F  
Max Temperature 38 °F 41 °F 57 °F (2014)
Min Temperature 25 °F 21 °F -12 °F (1972)
Degree Days  
Heating Degree Days 33 34  
Month to date heating degree days 1038 911  
Since 1 July heating degree days 3636 3812  
Cooling Degree Days 0 0  
Month to date cooling degree days 0 0  
Year to date cooling degree days 0 0  
Moisture  
Dew Point 31 °F    
Average Humidity 91    
Maximum Humidity 100    
Minimum Humidity 59    
Precipitation  
Precipitation 0.05 in 0.04 in 0.55 in (1967)
Month to date precipitation 0.44 1.68  
Year to date precipitation 0.44 1.68  
Snow  
Snow 0.00 in - - ()
Snow Depth 1.00 in    
Sea Level Pressure  
Sea Level Pressure 29.94 in    
Wind  
Wind Speed 6 mph (WNW)    
Max Wind Speed 14 mph    
Max Gust Speed 17 mph    
Visibility 6 miles    
Events Rain    
T = Trace of Precipitation, MM = Missing Value Source: NWS Daily Summary

Daily Weather History Graph

Daily Weather History Graph

Search for Another Location

Airport:

Trip Planner

Search our weather history database for the weather conditions in past years. The results will help you decide how hot, cold, wet, or windy it might be!

Date:

Astronomy

Jan. 26, 2013 Rise Set
Actual Time 7:25 AM PST 5:14 PM PST
Civil Twilight 6:55 AM PST 5:44 PM PST
Nautical Twilight 6:21 AM PST 6:18 PM PST
Astronomical Twilight 5:48 AM PST 6:51 PM PST
Moon 5:15 PM PST (1/26) 6:45 AM PST (1/26)
Length of Visible Light 10h 49m
Length of Day
9h 48m
Full, 100% of the Moon is Illuminated
Jan 26
Full
Jan 26
Full
Feb 3
Last Quarter
Feb 9
New
Feb 17
First Quarter

Hourly Weather History & Observations

Time (PST) Temp. Windchill Dew Point Humidity Pressure Visibility Wind Dir Wind Speed Gust Speed Precip Events Conditions
12:14 AM 32.0 °F - 32.0 °F 100% 29.95 in 0.8 mi Calm Calm - N/A   Overcast
12:24 AM 32.0 °F - 32.0 °F 100% 29.94 in 0.8 mi Calm Calm - 0.00 in   Overcast
12:26 AM 32.0 °F - 32.0 °F 100% 29.94 in 1.0 mi Calm Calm - 0.00 in   Overcast
12:37 AM 32.0 °F - 32.0 °F 100% 29.94 in 1.5 mi Calm Calm - 0.00 in   Overcast
12:46 AM 32.0 °F - 32.0 °F 100% 29.94 in 2.0 mi Calm Calm - 0.00 in   Overcast
12:53 AM 32.0 °F - 32.0 °F 100% 29.97 in 2.0 mi Calm Calm - 0.00 in   Overcast
1:02 AM 32.0 °F - 32.0 °F 100% 29.93 in 1.2 mi Calm Calm - 0.00 in   Overcast
1:10 AM 33.8 °F - 33.8 °F 100% 29.93 in 2.0 mi Calm Calm - 0.00 in   Overcast
1:18 AM 33.8 °F 30.8 °F 33.8 °F 100% 29.93 in 6.0 mi WSW 3.5 mph - 0.00 in   Overcast
1:53 AM 33.1 °F 30.0 °F 33.1 °F 100% 29.96 in 2.5 mi WNW 3.5 mph - 0.02 in Rain Rain
2:05 AM 33.8 °F - 33.8 °F 100% 29.94 in 4.0 mi Calm Calm - 0.00 in Rain Light Rain
2:15 AM 33.8 °F 30.8 °F 33.8 °F 100% 29.93 in 4.0 mi NE 3.5 mph - 0.00 in   Mostly Cloudy
2:26 AM 33.8 °F 30.8 °F 33.8 °F 100% 29.93 in 3.0 mi East 3.5 mph - 0.00 in   Scattered Clouds
2:33 AM 33.8 °F 30.8 °F 33.8 °F 100% 29.93 in 2.5 mi ESE 3.5 mph - 0.00 in   Scattered Clouds
2:44 AM 32.0 °F - 32.0 °F 100% 29.93 in 1.0 mi Calm Calm - 0.00 in Rain Light Rain
2:49 AM 33.8 °F - 33.8 °F 100% 29.93 in 0.8 mi Calm Calm - 0.00 in Rain Light Rain
2:53 AM 33.1 °F - 33.1 °F 100% 29.95 in 0.8 mi Calm Calm - 0.00 in Rain Light Rain
3:03 AM 33.8 °F 30.8 °F 33.8 °F 100% 29.92 in 1.5 mi WNW 3.5 mph - 0.01 in Rain Light Rain
3:07 AM 33.8 °F - 33.8 °F 100% 29.92 in 3.0 mi Calm Calm - 0.01 in Rain Light Rain
3:26 AM 33.8 °F - 33.8 °F 100% 29.92 in 5.0 mi Calm Calm - 0.01 in   Overcast
3:38 AM 35.6 °F 30.7 °F 35.6 °F 100% 29.91 in 8.0 mi WNW 5.8 mph - 0.02 in Rain Light Rain
3:45 AM 35.6 °F 31.7 °F 35.6 °F 100% 29.91 in 10.0 mi WNW 4.6 mph - 0.02 in   Mostly Cloudy
3:53 AM 33.1 °F - 33.1 °F 100% 29.93 in 10.0 mi Calm Calm - 0.02 in   Mostly Cloudy
4:51 AM 33.8 °F 27.0 °F 33.8 °F 100% 29.90 in 8.0 mi NNW 8.1 mph - 0.00 in Rain Light Rain
4:53 AM 34.0 °F 26.6 °F 34.0 °F 100% 29.92 in 8.0 mi NNW 9.2 mph - 0.00 in Rain Light Rain
5:18 AM 33.8 °F 27.0 °F 33.8 °F 100% 29.90 in 10.0 mi NW 8.1 mph - 0.01 in Rain Light Rain
5:53 AM 33.1 °F 26.1 °F 32.0 °F 96% 29.94 in 10.0 mi NW 8.1 mph - 0.01 in   Overcast
6:01 AM 33.8 °F 27.0 °F 32.0 °F 93% 29.91 in 7.0 mi NW 8.1 mph - N/A   Overcast
6:53 AM 33.8 °F 29.6 °F 30.2 °F 87% 29.94 in 7.0 mi NW 4.6 mph - N/A   Overcast
7:27 AM 33.8 °F 30.8 °F 30.2 °F 87% 29.92 in 10.0 mi WSW 3.5 mph - N/A   Mostly Cloudy
7:53 AM 33.1 °F 30.0 °F 32.0 °F 96% 29.95 in 10.0 mi SW 3.5 mph - N/A   Mostly Cloudy
8:53 AM 33.1 °F 30.0 °F 30.9 °F 92% 29.96 in 10.0 mi WNW 3.5 mph - N/A   Mostly Cloudy
9:53 AM 34.0 °F 27.2 °F 28.0 °F 79% 29.97 in 10.0 mi West 8.1 mph - N/A   Mostly Cloudy
10:53 AM 35.1 °F 29.3 °F 27.0 °F 72% 29.97 in 10.0 mi West 6.9 mph - N/A   Mostly Cloudy
11:53 AM 36.0 °F 29.6 °F 27.0 °F 70% 29.96 in 10.0 mi WNW 8.1 mph - N/A   Mostly Cloudy
12:53 PM 37.0 °F 32.4 °F 27.0 °F 67% 29.93 in 10.0 mi West 5.8 mph - N/A   Mostly Cloudy
1:53 PM 37.0 °F 29.8 °F 26.1 °F 65% 29.92 in 10.0 mi NW 10.4 mph - N/A   Mostly Cloudy
2:53 PM 36.0 °F 28.0 °F 25.0 °F 64% 29.92 in 10.0 mi WNW 11.5 mph - N/A   Mostly Cloudy
3:53 PM 35.1 °F 26.9 °F 23.0 °F 61% 29.93 in 10.0 mi West 11.5 mph - N/A   Mostly Cloudy
4:53 PM 33.1 °F 26.9 °F 25.0 °F 72% 29.93 in 10.0 mi WNW 6.9 mph - N/A   Scattered Clouds
5:53 PM 32.0 °F 24.8 °F 24.1 °F 73% 29.95 in 10.0 mi WNW 8.1 mph - N/A   Mostly Cloudy
6:53 PM 30.9 °F 24.3 °F 25.0 °F 79% 29.97 in 10.0 mi WNW 6.9 mph - N/A   Mostly Cloudy
7:53 PM 30.0 °F 22.4 °F 27.0 °F 88% 29.98 in 10.0 mi WNW 8.1 mph - N/A   Mostly Cloudy
8:53 PM 30.0 °F 21.7 °F 26.1 °F 85% 29.99 in 10.0 mi NNW 9.2 mph - N/A   Mostly Cloudy
9:53 PM 30.0 °F 25.2 °F 26.1 °F 85% 30.01 in 10.0 mi WNW 4.6 mph - N/A   Mostly Cloudy
10:53 PM 28.0 °F 22.8 °F 24.1 °F 85% 30.02 in 10.0 mi NW 4.6 mph - N/A   Clear
11:53 PM 26.1 °F - 23.0 °F 88% 30.04 in 10.0 mi Calm Calm - N/A   Clear